Location: Alfortville
(48.8058°N, 2.4204°E)
Time: 16:08:43
(UTC+00:00)

EO-88 - Visible Passes

Search period start: 20 March 2023 00:00
Search period end: 30 March 2023 00:00
Orbit: 402 x 405 km, 97.2° (Epoch: 19 March)

Date Brightness Start Highest point End Pass type
(mag) Time Alt. Az. Time Alt. Az. Time Alt. Az.
23 Mar ? 21:12:14 10° N 21:12:14 10° N 21:12:19 10° N visible
25 Mar ? 21:03:55 12° N 21:03:55 12° N 21:04:11 10° N visible
27 Mar ? 20:54:59 13° N 20:54:59 13° N 20:55:26 10° N visible
28 Mar ? 21:36:36 12° NNW 21:36:36 12° NNW 21:36:53 10° NNW visible
29 Mar ? 20:45:27 14° NNE 20:45:27 14° NNE 20:46:01 10° N visible
